RH
25 19 19 25 36 41 48 64 100 100 98 93 79 73 63 82 78 79 74 67 55 42 36 32 28 24 22 18 16 18 28 26 22 22 24 22 22 24 24 25 25 24 22
24 18 17 27 38 54 80 100 99 91 78 73 63 57 72 76 74 75 65 63 50 35 27 23 20 17 16 20 26 32 28 26 27 26 25 26 26 27 28 28 27 25 23
26 20 18 28 35 48 64 78 86 74 64 70 58 61 67 62 52 47 44 32 25 20 17 15 16 17 24 36 41 38 35 35 35 33 30 27 25 27 29 29 28 26 23
28 21 19 21 30 36 43 46 54 60 54 43 51 63 58 53 45 41 31 24 19 18 18 19 20 26 38 44 46 46 42 38 32 26 22 24 26 30 31 32 29 25 26
30 23 22 19 20 21 25 26 28 34 42 50 59 58 57 53 37 31 24 22 21 21 21 22 26 36 48 51 55 46 41 32 26 22 22 27 32 35 35 28 25 22 21
32 34 28 25 25 25 29 38 48 55 59 61 59 60 51 44 42 35 26 21 22 22 26 29 40 58 58 54 44 42 34 24 22 21 25 29 36 38 30 22 21 21 24
32 43 37 30 35 36 40 47 52 58 61 64 66 55 52 48 41 29 25 24 24 26 27 27 33 42 42 40 36 31 28 24 22 29 36 39 40 33 26 23 26 28 30
38 45 46 38 41 50 51 54 58 61 60 62 65 60 49 36 30 28 27 27 26 25 26 33 36 38 38 36 34 29 27 26 30 37 39 39 34 30 28 26 29 30 32
51 52 51 49 50 50 50 52 56 66 72 76 74 62 42 31 30 30 28 27 26 26 31 35 39 40 37 34 33 31 30 36 40 39 37 35 33 31 29 30 32 33 34
63 66 63 57 58 59 58 61 72 77 79 76 67 51 35 30 30 28 28 27 26 29 32 39 47 47 38 37 35 33 41 39 36 36 35 35 30 29 31 34 36 36 38
65 69 73 68 63 65 64 64 67 69 69 63 55 38 30 30 29 31 30 28 28 28 32 37 45 50 45 40 38 43 47 40 37 34 32 30 30 32 37 37 42 43 44
65 66 69 70 68 62 63 68 64 59 54 47 40 35 33 32 33 31 30 30 30 30 40 50 61 49 41 43 45 52 45 41 38 36 33 33 33 38 45 45 47 49 55
71 68 65 60 64 62 61 61 60 54 46 40 36 35 35 35 35 35 38 38 35 45 56 62 47 42 50 53 61 54 52 46 40 36 38 37 41 46 46 48 47 52 76
96 84 72 66 60 63 67 68 63 55 52 49 44 39 38 43 46 45 44 50 67 66 57 50 49 61 61 65 59 57 49 46 43 43 42 47 52 51 54 48 45 46 68
81 83 93 85 72 68 70 71 67 65 62 61 56 60 61 57 52 48 57 83 68 59 58 62 74 74 66 63 61 55 52 49 51 51 54 53 54 62 54 51 48 44 62
72 70 81 86 80 77 70 65 67 67 68 69 67 65 68 68 61 73 88 70 57 62 79 89 77 74 69 66 68 62 58 57 64 64 59 66 66 60 53 50 48 52 64
76 75 78 76 75 76 75 70 66 65 71 75 75 73 72 72 79 87 74 61 70 95 98 89 79 78 77 86 80 73 72 74 67 61 69 72 64 56 50 49 60 66 73
81 79 76 79 83 81 80 80 78 79 83 85 83 83 83 83 84 76 65 76 97 99 88 92 86 93 96 93 75 76 73 68 66 77 72 66 62 54 52 56 67 68 61
86 82 82 83 85 85 85 87 84 84 88 84 85 86 83 76 70 70 83 100 100 98 99 99 100 100 94 86 89 79 70 68 72 78 73 65 58 57 56 53 62 62 66
100 97 90 86 86 89 85 83 84 87 92 94 89 83 77 73 82 100 100 100 97 100 99 99 95 91 88 96 86 79 77 76 75 70 65 61 61 59 57 59 61 67 67
84 84 80 74 66 72 79 84 90 84 77 81 84 81 77 89 100 100 100 100 99 89 99 94 88 91 100 92 74 71 62 65 64 62 58 62 59 63 61 61 63 68 71
99 91 84 79 84 76 70 72 77 83 88 90 86 93 100 100 100 100 100 100 100 99 97 92 98 96 84 77 70 66 63 61 64 54 49 48 60 64 83 91 99 99 100
100 100 100 100 98 100 100 95 91 86 88 91 100 100 99 100 100 100 100 100 100 99 90 94 95 76 74 71 67 60 60 61 53 52 47 53 49 60 76 93 81 100 100
100 100 100 100 100 100 100 100 100 100 100 100 100 100 100 100 95 93 91 91 85 88 87 84 76 72 70 68 67 70 62 58 41 47 50 50 56 53 52 36 43 66 100
100 100 100 100 100 100 100 100 100 100 100 100 100 100 100 98 100 99 80 71 73 74 76 77 75 74 68 78 71 69 62 45 46 44 32 41 32 30 35 37 44 55 67
100 99 94 92 94 96 97 99 100 100 100 97 95 96 100 98 89 79 72 74 79 78 82 70 82 83 75 74 69 60 44 37 23 18 18 22 25 32 33 45 51 62 99
Wind_Speed
32 32 33 34 34 35 35 35 36 36 36 37 36 33 32 30 27 22 22 22 22 22 23 24 24 25 26 28 30 33 35 37 40 43 47 49 51 53 53 54 55 56 57
32 30 33 34 32 33 31 31 32 34 35 33 30 31 29 25 20 19 20 21 23 23 23 24 24 26 28 31 33 36 38 41 45 48 50 52 55 53 54 56 57 59 59
33 30 31 33 32 31 32 34 34 34 32 32 29 26 24 21 22 23 22 22 21 22 23 25 28 31 32 34 37 40 43 46 49 52 54 55 54 54 55 58 61 62 61
34 30 28 33 33 31 32 32 33 31 30 26 25 23 23 24 24 23 22 23 24 25 27 29 32 34 36 38 42 45 48 51 51 54 55 54 55 55 59 61 64 63 61
33 31 27 28 30 30 30 29 29 27 26 25 24 25 24 23 23 24 24 26 27 29 32 34 36 37 40 43 47 49 51 53 54 55 54 55 55 58 62 64 64 62 59
34 31 30 30 28 28 28 28 27 25 24 24 24 25 24 25 26 27 28 29 32 34 35 36 37 39 42 45 51 52 55 55 55 56 55 56 57 62 64 63 63 61 56
36 34 32 32 31 30 28 28 28 27 27 26 26 26 27 28 29 30 32 34 35 37 38 39 41 44 48 50 53 55 57 57 59 57 57 60 62 64 64 64 62 61 59
39 36 35 33 32 31 30 30 30 29 28 27 28 29 30 30 32 33 35 37 39 40 42 43 46 49 52 54 58 60 61 61 59 59 62 63 64 64 64 66 65 63 61
42 39 36 35 33 33 32 32 31 31 30 30 33 34 34 33 34 36 38 41 43 44 46 48 51 54 57 60 63 66 66 63 63 64 64 64 67 66 67 67 66 66 66
44 42 40 38 36 35 34 34 34 34 34 35 36 37 37 37 38 40 43 46 47 48 51 53 55 59 61 62 65 68 67 66 66 65 65 66 68 66 67 67 69 70 71
47 46 43 42 40 39 38 37 38 38 39 40 41 41 41 42 43 46 48 49 50 53 55 58 62 64 65 68 69 71 69 70 68 67 68 68 71 71 73 72 76 75 71
50 47 47 46 45 44 43 42 43 43 44 44 44 45 46 48 50 51 51 52 55 57 59 62 63 66 69 70 72 68 70 70 70 70 72 73 75 76 73 74 80 73 67
55 54 51 49 49 48 47 45 46 47 47 47 48 50 52 54 54 55 56 58 59 61 63 64 67 69 71 72 68 70 69 72 72 73 73 75 78 78 79 81 79 72 62
56 56 55 53 53 51 51 51 51 50 51 52 53 55 57 57 57 59 60 63 62 64 67 69 70 70 72 69 69 68 71 74 76 77 77 77 80 83 83 83 81 74 63
66 56 56 56 56 56 56 56 55 55 55 56 55 57 59 60 61 63 64 64 67 69 71 71 70 71 70 70 70 72 74 76 77 80 80 81 84 86 87 86 82 75 65
68 68 63 61 61 61 61 60 60 60 60 61 62 60 61 63 65 66 66 68 71 72 70 70 71 71 70 72 74 77 77 79 78 81 84 86 87 91 92 89 81 72 65
73 71 70 69 68 65 63 63 64 63 63 63 63 64 65 67 68 69 70 72 71 70 69 69 71 72 74 75 79 80 80 81 84 86 87 89 96 93 92 87 76 70 66
74 74 73 72 71 71 69 67 66 66 65 66 67 67 69 69 70 71 73 74 69 68 71 71 73 74 77 81 84 84 85 86 88 90 93 96 97 96 94 81 74 72 69
77 77 76 75 73 71 70 69 69 67 68 69 70 71 71 72 73 74 73 71 69 73 73 74 77 79 83 86 87 90 92 93 94 96 99 103 103 99 91 82 76 74 69
81 80 79 78 76 74 72 72 72 71 70 71 73 73 72 73 73 71 70 72 75 74 76 79 82 84 87 90 91 93 95 98 101 102 106 106 102 100 91 82 77 75 73
79 79 80 80 78 76 74 73 73 74 74 74 74 74 75 73 68 68 73 76 78 80 82 85 87 87 89 94 97 99 102 105 107 110 112 108 100 90 85 86 83 81 80
81 80 78 77 77 77 76 75 75 75 74 74 74 73 69 66 69 72 75 77 82 85 87 89 90 92 95 100 104 107 108 110 114 116 113 105 93 89 90 91 94 93 90
79 77 77 78 77 76 75 75 77 78 78 77 73 71 72 73 75 75 77 82 85 88 91 94 97 99 103 105 110 114 115 116 119 105 102 96 96 93 93 98 99 94 88
84 81 78 77 76 76 75 73 71 69 69 71 73 75 78 80 80 82 84 85 88 92 95 99 103 105 108 110 112 115 118 120 110 99 98 102 105 102 100 87 80 77 76
83 83 83 82 81 80 77 77 76 75 74 75 77 79 82 84 86 89 92 93 93 95 99 103 106 108 112 113 115 119 120 111 105 102 100 104 100 91 90 85 75 70 72
85 84 83 82 82 82 82 81 81 81 81 83 83 84 85 89 92 93 96 97 99 102 103 106 107 110 114 117 119 120 115 113 109 108 99 90 89 84 87 79 80 79 76
Wind_Direction
226 233 231 234 236 237 236 236 240 244 249 252 259 262 262 272 281 282 283 283 284 285 288 293 297 299 302 305 307 307 307 313 317 319 320 319 320 318 317 318 319 319 316
225 233 229 231 235 233 231 237 243 247 251 251 257 258 262 270 273 272 276 277 282 287 292 295 299 304 304 307 307 308 311 314 315 317 318 319 317 316 317 318 319 318 315
227 232 231 231 233 234 236 240 244 247 249 253 254 255 258 261 264 268 273 279 288 293 300 305 308 307 306 306 309 311 312 313 315 315 315 315 317 316 318 318 318 315 313
227 228 232 231 232 235 237 241 243 247 247 250 252 253 255 260 265 273 280 288 293 300 304 303 303 303 303 304 308 309 312 313 314 314 314 317 317 317 318 317 315 313 311
227 226 230 231 231 233 237 241 241 242 244 247 248 252 260 264 269 275 283 289 295 299 299 300 302 303 303 307 310 309 313 314 313 315 316 315 316 316 316 316 313 311 311
231 232 234 234 230 232 234 233 234 238 241 246 250 256 259 265 273 280 286 291 293 295 296 298 303 305 308 310 312 312 314 316 314 316 317 316 315 315 315 314 312 312 311
231 233 234 232 232 232 233 235 236 238 242 246 250 255 263 270 279 283 286 290 291 293 296 299 303 307 306 308 311 312 312 315 315 316 316 316 314 314 314 313 312 310 311
232 235 235 233 233 235 237 239 241 245 245 248 254 261 267 273 278 282 286 290 291 295 298 299 301 303 305 307 309 313 316 317 317 316 315 314 313 313 314 315 313 311 313
235 237 237 237 236 237 239 243 244 244 245 250 255 262 269 273 277 282 286 289 291 293 296 297 300 301 305 307 312 315 316 315 315 315 314 313 315 314 315 316 316 316 314
233 237 238 239 238 240 241 244 246 248 251 255 259 261 264 271 276 280 285 288 290 292 294 295 300 304 305 307 311 314 314 314 313 312 313 313 314 316 317 318 317 316 316
233 235 237 240 242 243 245 248 250 252 256 259 263 265 268 271 274 279 285 288 290 290 293 296 299 303 306 309 311 314 312 312 313 313 313 313 316 318 319 319 320 316 314
237 236 239 241 243 245 246 248 252 255 256 259 262 266 270 273 278 282 284 287 287 291 295 298 301 304 308 310 311 310 311 311 312 313 314 315 317 319 318 317 318 313 312
236 238 242 243 245 247 250 253 255 256 258 261 264 267 270 275 279 283 287 289 291 294 297 300 302 305 308 307 307 308 307 309 309 312 313 316 316 317 317 318 318 312 310
236 240 241 243 246 249 253 255 257 259 261 263 265 268 273 276 281 285 290 292 295 297 298 302 303 305 304 304 304 304 307 308 311 312 313 313 313 314 316 316 317 314 307
237 240 238 242 246 250 252 255 257 259 261 264 265 269 273 276 282 286 290 293 296 298 300 301 300 300 301 303 303 304 306 308 310 311 311 311 312 313 314 316 316 311 305
237 241 244 247 249 249 252 256 259 260 263 266 267 270 275 280 284 288 290 293 297 298 297 296 298 298 301 302 301 304 306 308 309 308 308 309 310 312 314 314 311 308 303
238 240 244 248 251 253 255 256 258 261 264 269 272 274 277 281 285 287 291 293 294 293 293 295 298 300 300 299 302 304 306 307 306 307 308 308 309 312 312 311 306 302 298
238 242 245 247 250 254 257 259 261 265 268 270 272 276 279 282 285 287 289 292 292 292 294 295 298 298 298 299 302 304 305 305 306 307 307 308 310 310 311 306 301 297 294
239 241 244 247 251 254 256 259 262 265 268 272 275 277 279 282 285 287 289 286 289 291 295 296 297 297 300 301 303 303 305 305 306 307 307 308 310 309 306 302 295 294 292
240 243 245 247 249 252 256 260 263 266 268 271 273 276 279 281 284 284 280 283 286 294 293 293 295 297 299 300 302 303 304 304 306 305 306 309 308 306 301 298 296 292 291
241 243 246 249 250 252 255 258 262 265 267 269 272 275 279 281 281 281 282 286 288 290 292 295 296 297 298 299 300 301 302 303 305 305 307 306 304 299 297 296 295 294 293
243 244 247 250 253 256 257 258 261 263 266 269 272 275 277 277 277 279 282 287 290 291 294 296 296 296 298 299 301 303 303 306 305 307 307 304 301 299 298 297 297 296 294
246 248 250 252 253 255 260 263 265 268 270 271 272 271 270 272 274 279 282 285 290 292 294 295 296 299 298 301 302 303 305 306 307 305 303 300 298 297 295 295 293 289 287
245 247 249 252 254 256 258 260 262 264 265 266 268 271 272 274 277 278 281 284 287 290 293 295 296 298 300 301 303 304 305 306 305 301 300 300 299 297 293 291 288 285 284
246 248 250 252 255 257 259 261 262 263 264 266 268 272 276 280 281 283 285 287 290 290 293 295 297 299 301 303 304 305 305 303 303 300 300 298 296 295 294 290 289 287 285
247 249 251 253 256 258 260 261 262 264 266 267 270 273 275 278 282 285 288 290 292 293 296 297 299 300 301 303 304 304 304 303 302 302 302 299 296 292 288 287 287 285 285